Findlay, OH

1:08 AM EDT on June 24, 2017 (GMT -0400)
Findlay

Weather History for KFDY - June, 2014

Change the Weather History Date:

Sunday, June 8, 2014

  Actual Average Record
Temperature  
Mean Temperature 66 °F -  
Max Temperature 73 °F 78 °F 96 °F (2011)
Min Temperature 60 °F 58 °F 42 °F (1998)
Cooling Degree Days 2    
Growing Degree Days 16 (Base 50)    
Moisture  
Dew Point 56 °F    
Average Humidity 75    
Maximum Humidity 96    
Minimum Humidity 49    
Precipitation  
Precipitation 0.78 in - - ()
Sea Level Pressure  
Sea Level Pressure 29.84 in    
Wind  
Wind Speed 9 mph (NE)    
Max Wind Speed 21 mph    
Max Gust Speed 26 mph    
Visibility 8 miles    
Events Rain    
Averages and records for this station are not official NWS values.
T = Trace of Precipitation, MM = Missing Value Source: NWS Daily Summary

Daily Weather History Graph

Daily Weather History Graph

Search for Another Location

Airport or City:

Trip Planner

Search our weather history database for the weather conditions in past years. The results will help you decide how hot, cold, wet, or windy it might be!

Date:

Astronomy

Jun. 08, 2014 Rise Set
Actual Time 6:02 AM EDT 9:05 PM EDT
Civil Twilight 5:29 AM EDT 9:38 PM EDT
Nautical Twilight 4:46 AM EDT 10:21 PM EDT
Astronomical Twilight 3:57 AM EDT 11:11 PM EDT
Moon 4:20 PM EDT (6/8) 2:57 AM EDT (6/8)
Length of Visible Light 16h 09m
Length of Day
15h 02m
Waxing Gibbous, 77% of the Moon is Illuminated
Jun 8
Waxing Gibbous
Jun 13
Full
Jun 19
Last Quarter
Jun 27
New
Jul 5
First Quarter

Hourly Weather History & Observations

Time (EDT) Temp. Dew Point Humidity Pressure Visibility Wind Dir Wind Speed Gust Speed Precip Events Conditions
12:53 AM 69.1 °F 52.0 °F 54% 29.84 in 10.0 mi ESE 8.1 mph - N/A   Clear
1:53 AM 66.9 °F 53.1 °F 61% 29.82 in 10.0 mi East 8.1 mph - N/A   Clear
2:53 AM 66.0 °F 52.0 °F 60% 29.80 in 10.0 mi ESE 6.9 mph - N/A   Clear
3:53 AM 64.9 °F 51.1 °F 61% 29.76 in 10.0 mi East 8.1 mph - N/A   Clear
4:53 AM 66.0 °F 50.0 °F 56% 29.73 in 10.0 mi East 9.2 mph - N/A   Mostly Cloudy
5:53 AM 62.1 °F 55.0 °F 78% 29.78 in 5.0 mi SSE 5.8 mph - 0.04 in Rain Rain
6:53 AM 60.1 °F 57.0 °F 90% 29.77 in 4.0 mi SE 9.2 mph - 0.24 in Rain Rain
7:15 AM 60.1 °F 57.9 °F 93% 29.79 in 2.5 mi East 6.9 mph - 0.16 in Rain Heavy Rain
7:27 AM 60.1 °F 57.9 °F 93% 29.83 in 4.0 mi West 4.6 mph - 0.20 in Rain Rain
7:30 AM 60.1 °F 59.0 °F 96% 29.83 in 1.5 mi Calm Calm - 0.28 in Rain Rain
7:53 AM 60.1 °F 59.0 °F 96% 29.78 in 2.0 mi NE 8.1 mph - 0.41 in Rain Heavy Rain
8:06 AM 60.1 °F 57.9 °F 93% 29.80 in 3.0 mi East 12.7 mph - 0.02 in Rain Rain
8:53 AM 60.1 °F 57.9 °F 93% 29.80 in 4.0 mi NNE 11.5 mph - 0.07 in Rain Light Rain
9:53 AM 60.1 °F 57.9 °F 93% 29.81 in 7.0 mi North 8.1 mph - 0.01 in Rain Light Rain
10:53 AM 63.0 °F 59.0 °F 87% 29.80 in 10.0 mi North 8.1 mph - 0.00 in Rain Light Rain
11:53 AM 64.0 °F 60.1 °F 87% 29.82 in 10.0 mi North 9.2 mph - 0.01 in   Overcast
12:19 PM 64.0 °F 60.1 °F 87% 29.85 in 9.0 mi North 13.8 mph - N/A   Overcast
12:44 PM 64.0 °F 60.1 °F 87% 29.85 in 7.0 mi NNE 13.8 mph - 0.00 in Rain Light Rain
12:53 PM 64.9 °F 61.0 °F 87% 29.84 in 8.0 mi North 15.0 mph - 0.00 in Rain Light Rain
1:44 PM 68.0 °F 60.1 °F 76% 29.86 in 10.0 mi North 18.4 mph - 0.00 in   Mostly Cloudy
1:53 PM 69.1 °F 60.1 °F 73% 29.84 in 10.0 mi North 20.7 mph 26.5 mph 0.00 in   Mostly Cloudy
2:07 PM 70.0 °F 59.0 °F 68% 29.86 in 10.0 mi NNE 19.6 mph - N/A   Mostly Cloudy
2:53 PM 71.1 °F 57.9 °F 63% 29.85 in 10.0 mi NNE 17.3 mph - N/A   Mostly Cloudy
4:53 PM 73.0 °F 57.0 °F 57% 29.87 in 10.0 mi NNE 17.3 mph 26.5 mph N/A   Mostly Cloudy
5:53 PM 73.0 °F 54.0 °F 51% 29.88 in 10.0 mi NNE 16.1 mph - N/A   Clear
6:53 PM 72.0 °F 54.0 °F 53% 29.88 in 10.0 mi North 12.7 mph - N/A   Partly Cloudy
7:53 PM 72.0 °F 52.0 °F 49% 29.90 in 10.0 mi NNE 10.4 mph - N/A   Clear
8:53 PM 69.1 °F 52.0 °F 54% 29.91 in 10.0 mi NE 9.2 mph - N/A   Clear
9:53 PM 66.0 °F 54.0 °F 65% 29.95 in 10.0 mi Calm Calm - N/A   Partly Cloudy
10:53 PM 63.0 °F 54.0 °F 72% 29.95 in 10.0 mi Calm Calm - N/A   Clear
11:53 PM 61.0 °F 55.0 °F 81% 29.96 in 10.0 mi Calm Calm - N/A   Clear